Wind_Speed
36 39 42 42 42 42 41 41 41 40 40 41 42 42 44 47 47 48 48 48 48 48 48 48 47 47 46 46 45 44 43 42 41 41 41 40 39 39 39 38 37 37 37 37
32 35 38 40 40 40 40 39 39 39 39 39 40 41 42 45 47 46 46 45 46 47 46 47 47 47 46 46 46 46 45 44 43 43 43 42 42 41 40 39 39 39 39 38
28 32 35 38 38 38 39 37 37 37 37 38 39 40 41 42 44 45 45 44 44 45 46 46 46 46 46 46 46 46 46 46 45 45 44 44 43 42 42 41 41 40 40 40
26 28 33 36 36 35 35 35 36 36 37 38 38 39 39 40 42 43 43 44 43 44 45 45 45 46 45 46 46 46 47 46 46 46 45 45 44 43 43 42 42 42 42 42
23 27 30 33 35 34 33 33 34 34 36 37 37 37 36 38 40 40 41 42 43 43 45 45 46 46 45 45 46 46 47 47 47 47 47 46 45 45 44 43 43 43 43 43
20 25 28 31 33 32 31 30 32 33 35 37 36 36 34 35 36 38 40 41 42 43 43 45 45 46 46 46 46 46 47 47 47 47 47 47 46 46 45 44 44 44 44 44
19 23 26 30 32 31 30 29 30 32 34 36 35 35 31 31 34 36 38 40 41 42 43 43 44 45 46 46 47 47 48 48 48 48 48 47 47 46 46 45 45 45 45 45
18 22 25 28 30 29 29 29 29 30 32 33 33 33 29 30 32 35 37 38 40 42 43 43 44 45 46 47 47 47 47 48 48 48 48 48 48 47 47 47 47 47 47 47
16 19 22 25 26 27 27 28 28 28 28 29 31 31 29 28 30 33 36 38 39 40 42 43 44 45 46 47 47 47 47 48 48 48 48 48 48 47 47 48 47 47 47 47
14 18 20 21 24 25 27 27 27 28 28 28 29 29 28 27 29 31 34 37 38 40 41 42 44 45 46 47 47 47 47 47 47 47 47 47 47 47 47 47 47 47 47 46
12 16 20 22 24 25 25 26 28 28 29 28 27 26 25 26 28 29 32 34 37 39 40 42 42 44 45 46 46 47 47 47 46 46 46 46 46 46 46 46 46 46 46 46
12 14 18 21 23 25 25 25 27 28 28 28 27 25 24 24 26 27 29 31 34 37 39 40 41 42 43 44 45 45 46 46 46 46 45 45 45 45 45 45 45 45 45 45
14 15 18 20 22 24 25 25 27 28 29 29 28 25 23 23 24 26 28 29 31 33 35 37 39 40 41 41 42 44 44 45 45 45 45 45 45 44 44 44 44 44 43 43
16 17 18 20 21 23 24 25 27 29 30 29 27 24 23 24 25 26 28 29 30 32 33 35 36 37 38 39 40 41 41 42 43 43 44 44 44 44 43 42 42 42 41 41
18 19 20 21 22 23 24 25 27 28 29 29 27 25 23 25 27 27 28 29 30 31 32 33 34 35 36 37 38 38 39 39 40 40 41 41 41 41 40 40 39 39 39 39
20 21 21 22 23 25 25 26 27 28 28 28 27 24 23 26 28 28 28 29 29 30 31 32 33 33 34 35 36 37 37 37 38 38 38 38 38 38 38 37 37 37 37 36
21 22 23 23 24 26 25 24 26 27 27 27 27 24 26 27 28 29 29 29 29 29 30 30 31 32 32 33 33 34 35 35 35 35 35 35 35 35 35 35 35 35 34 34
22 22 23 24 25 26 23 23 25 26 25 26 26 25 26 27 27 27 28 28 28 28 29 29 29 29 30 30 30 31 32 32 32 32 32 32 32 32 32 32 32 32 32 31
24 24 25 25 25 24 22 23 23 25 25 27 27 26 26 26 25 25 26 27 27 27 27 27 28 27 27 28 28 28 29 29 30 30 30 30 30 30 30 30 30 30 30 29
25 25 25 26 26 25 22 23 24 25 24 25 26 26 26 25 24 24 25 25 25 26 26 25 26 26 26 26 26 26 27 27 28 28 28 28 28 28 28 28 28 28 28 27
24 26 26 26 27 25 23 23 23 24 23 23 24 24 25 25 25 25 25 24 24 25 24 24 25 25 25 25 25 25 26 26 26 26 26 27 27 27 27 27 26 26 26 26
24 25 25 26 26 24 23 23 24 24 23 23 23 23 23 24 24 25 25 24 24 24 24 24 24 24 25 25 25 25 25 25 25 25 25 26 26 26 25 25 25 25 25 25
24 24 25 25 24 24 24 24 24 24 24 23 23 22 23 23 23 24 24 24 24 24 24 24 24 24 25 25 25 25 25 25 25 25 25 25 25 25 24 24 24 24 24 24
24 24 25 25 23 24 24 24 25 25 24 24 24 23 23 23 24 24 24 24 24 24 24 24 24 25 25 25 24 24 24 24 24 24 24 24 24 24 24 24 24 24 24 25
26 26 26 26 25 25 25 25 25 25 25 24 24 24 24 24 24 24 24 24 24 24 24 24 25 25 24 24 24 23 24 24 24 24 24 24 24 24 24 25 25 25 25 25
26 29 28 27 26 26 25 25 26 26 25 25 25 24 25 25 25 24 25 24 24 24 24 24 24 24 24 24 24 24 24 24 24 24 24 24 24 25 25 25 25 26 26 26
Wind_Direction
195 199 201 204 207 209 212 215 217 219 222 224 225 224 225 225 223 224 225 226 227 229 232 233 233 233 234 235 235 237 239 241 244 246 249 252 255 258 261 264 267 270 273 275
192 197 200 202 204 207 210 213 215 218 222 225 226 227 226 227 226 226 227 228 230 231 233 234 234 234 235 236 237 238 239 241 243 246 248 251 255 258 261 263 266 269 271 274
191 194 197 200 202 205 209 212 214 217 221 224 226 228 228 229 230 230 230 231 232 233 234 236 236 236 236 237 239 239 239 241 243 245 248 251 254 257 260 263 265 268 271 273
189 193 196 199 201 203 208 212 215 218 221 224 227 229 230 232 233 233 234 235 235 235 236 237 238 239 239 239 240 241 242 243 245 247 249 252 255 257 260 262 265 267 270 272
189 193 195 198 201 203 207 213 216 219 223 226 228 231 229 233 235 235 235 236 236 238 239 239 239 240 241 241 242 243 244 245 247 248 250 252 254 257 259 261 264 267 270 272
190 195 196 196 198 201 205 211 216 220 224 227 228 233 229 233 236 237 237 237 237 238 239 239 240 240 241 242 243 244 244 246 248 250 252 254 255 257 260 262 265 267 270 273
190 195 196 196 198 201 204 209 214 220 225 228 229 233 232 232 234 236 236 237 237 239 239 239 240 241 242 243 244 245 246 247 248 250 252 254 256 258 260 262 264 267 270 272
192 196 197 197 199 203 207 211 217 224 228 231 231 235 235 234 234 236 237 237 239 240 240 240 241 242 243 244 245 247 248 249 250 252 253 255 257 258 260 262 264 267 270 272
194 196 197 200 202 207 210 214 220 227 231 234 234 235 235 235 236 237 238 239 240 241 241 241 242 243 244 245 247 248 249 250 252 253 254 256 257 259 261 263 265 268 270 272
202 204 206 209 209 211 215 220 225 230 235 238 237 236 237 236 238 239 239 240 241 242 243 243 244 245 245 246 247 249 250 251 253 254 255 257 259 260 262 264 266 268 271 273
215 216 214 215 214 218 219 224 228 234 238 240 240 239 239 240 242 243 242 241 241 242 243 244 244 246 247 248 249 250 251 252 253 254 256 257 259 261 263 265 267 269 271 274
225 226 221 220 221 224 227 229 231 235 239 243 245 241 242 246 247 246 245 243 243 242 243 244 246 248 249 249 250 251 252 253 254 255 256 258 260 262 264 265 267 269 271 273
236 234 230 228 229 230 234 234 236 238 242 245 246 246 247 249 248 247 245 244 244 243 243 245 246 248 249 250 251 252 253 254 255 257 258 259 260 262 264 267 268 270 272 274
244 240 238 237 237 237 239 239 239 241 244 247 248 250 251 251 248 246 245 245 244 245 245 246 248 249 251 252 253 254 255 256 257 258 259 260 262 263 265 267 269 271 272 274
248 246 244 242 242 242 242 243 244 245 247 250 251 251 248 249 248 247 246 246 246 246 247 248 249 250 251 253 254 255 256 257 258 259 260 262 263 264 265 266 268 270 271 273
250 249 247 246 245 246 246 246 248 250 251 253 252 250 249 248 248 248 247 247 247 248 249 250 251 252 253 254 254 255 256 257 258 259 260 261 262 263 264 265 267 269 270 271
253 253 251 249 249 250 249 250 251 252 252 252 252 251 248 249 250 250 250 250 251 250 250 252 253 253 254 255 255 255 256 256 258 259 259 260 261 262 263 264 266 267 268 270
256 254 255 254 252 252 254 251 252 253 252 253 253 252 253 253 252 252 252 253 252 251 250 251 253 253 254 254 254 255 255 256 256 256 257 258 259 260 262 264 265 266 267 269
258 257 257 258 256 254 254 256 255 255 255 254 254 252 254 254 254 254 253 252 251 251 252 252 253 254 254 254 254 256 256 256 256 256 257 258 259 260 261 263 264 266 267 268
258 258 259 259 259 257 255 256 256 257 257 255 255 254 254 254 254 251 250 250 250 251 252 252 252 254 255 255 256 257 257 257 257 257 257 257 258 259 260 262 264 265 267 269
258 256 257 259 259 258 257 257 257 257 257 257 256 255 253 252 251 250 250 251 251 252 252 252 252 253 254 255 256 257 257 257 257 258 258 257 258 259 260 262 264 265 267 269
260 258 256 257 259 259 258 257 257 257 256 256 256 255 254 252 251 250 250 251 251 252 252 253 253 254 255 256 257 258 258 258 258 258 258 258 258 259 260 262 264 266 267 268
262 260 257 257 258 258 257 257 257 256 255 255 255 254 254 253 251 251 251 251 251 251 253 254 255 255 256 257 258 259 259 259 259 259 258 257 258 259 260 262 264 266 266 268
261 260 258 257 256 256 255 256 256 256 255 255 255 255 255 253 252 252 252 252 252 253 255 256 256 256 256 256 257 258 259 259 258 258 258 258 258 260 261 262 264 266 267 269
260 259 259 257 255 254 254 254 255 256 255 255 255 254 254 253 253 253 252 252 253 254 256 256 256 255 255 256 258 259 260 260 259 258 257 258 260 260 261 263 265 267 268 270
259 258 257 255 253 254 253 253 254 255 254 254 255 255 254 254 253 252 253 254 255 256 257 258 257 255 255 257 259 260 261 261 259 258 258 259 260 261 262 264 266 267 269 270
Height
5632 5641 5650 5659 5668 5676 5684 5691 5698 5705 5710 5716 5722 5729 5734 5738 5745 5751 5757 5763 5769 5774 5779 5785 5789 5793 5798 5801 5805 5808 5811 5814 5817 5819 5821 5823 5824 5826 5827 5827 5828 5828 5829 5828
5633 5640 5649 5656 5664 5672 5680 5687 5694 5700 5705 5711 5716 5721 5726 5731 5738 5745 5750 5756 5762 5767 5772 5777 5781 5785 5789 5793 5797 5800 5803 5806 5809 5811 5813 5815 5817 5818 5819 5820 5820 5821 5821 5821
5633 5641 5647 5654 5662 5669 5677 5684 5690 5696 5701 5705 5711 5715 5721 5727 5732 5738 5744 5750 5755 5761 5765 5769 5773 5778 5781 5785 5788 5791 5795 5797 5800 5803 5805 5807 5809 5810 5811 5812 5812 5812 5813 5813
5633 5639 5646 5653 5660 5667 5674 5680 5686 5691 5696 5700 5706 5710 5717 5722 5726 5733 5739 5744 5749 5754 5758 5762 5766 5769 5773 5776 5780 5783 5786 5789 5791 5794 5796 5798 5800 5802 5803 5803 5804 5804 5804 5804
5635 5640 5646 5652 5660 5666 5672 5677 5682 5687 5691 5696 5701 5705 5713 5716 5721 5728 5733 5737 5741 5746 5749 5753 5757 5761 5764 5768 5771 5774 5777 5780 5782 5785 5787 5789 5791 5793 5794 5795 5795 5795 5795 5795
5637 5641 5646 5652 5658 5664 5670 5675 5679 5683 5687 5692 5697 5700 5707 5712 5717 5721 5725 5729 5733 5737 5740 5744 5748 5752 5755 5759 5762 5765 5767 5770 5773 5775 5778 5780 5782 5783 5785 5786 5786 5786 5786 5785
5638 5642 5646 5651 5657 5662 5668 5673 5676 5679 5682 5687 5692 5694 5703 5708 5710 5713 5717 5720 5724 5728 5732 5735 5739 5743 5746 5749 5752 5755 5758 5761 5763 5766 5768 5770 5772 5774 5775 5776 5776 5777 5776 5776
5640 5644 5647 5651 5656 5661 5665 5670 5674 5677 5680 5684 5687 5690 5699 5701 5704 5706 5709 5712 5715 5719 5723 5726 5730 5733 5736 5739 5742 5745 5748 5751 5754 5756 5758 5760 5762 5764 5765 5766 5766 5767 5766 5766
5642 5645 5648 5651 5656 5660 5663 5666 5670 5673 5676 5679 5682 5687 5692 5695 5697 5699 5702 5705 5708 5711 5714 5717 5720 5723 5726 5729 5732 5735 5738 5741 5743 5746 5748 5750 5752 5753 5754 5755 5756 5756 5756 5756
5643 5645 5648 5651 5654 5657 5661 5664 5667 5669 5671 5674 5678 5682 5686 5688 5690 5692 5695 5697 5700 5703 5706 5708 5711 5714 5717 5720 5723 5725 5728 5731 5733 5736 5738 5740 5741 5743 5744 5745 5745 5745 5745 5745
5644 5646 5648 5650 5652 5655 5659 5661 5663 5665 5667 5670 5673 5679 5680 5682 5683 5685 5687 5689 5692 5695 5697 5700 5702 5705 5708 5711 5713 5716 5718 5721 5723 5726 5728 5729 5731 5732 5733 5734 5734 5735 5734 5734
5643 5645 5646 5648 5650 5652 5654 5657 5659 5662 5664 5665 5667 5675 5675 5676 5677 5678 5680 5682 5684 5686 5689 5691 5694 5696 5699 5701 5704 5706 5708 5711 5713 5715 5717 5719 5720 5722 5723 5723 5724 5724 5724 5724
5641 5643 5644 5646 5649 5650 5651 5653 5655 5657 5658 5659 5662 5669 5669 5670 5671 5672 5673 5675 5677 5679 5681 5683 5685 5687 5690 5692 5694 5696 5698 5701 5703 5705 5707 5708 5710 5711 5712 5713 5713 5713 5713 5713
5639 5640 5642 5644 5644 5645 5647 5649 5650 5651 5652 5654 5657 5661 5663 5663 5664 5665 5667 5668 5670 5671 5673 5675 5677 5679 5681 5683 5685 5687 5689 5691 5693 5695 5697 5698 5700 5701 5702 5703 5703 5703 5703 5703
5635 5636 5637 5638 5639 5640 5642 5643 5644 5645 5647 5648 5651 5653 5656 5656 5656 5658 5660 5661 5663 5664 5666 5667 5669 5670 5672 5674 5676 5678 5680 5682 5683 5685 5687 5688 5690 5691 5692 5693 5693 5693 5694 5693
5630 5631 5632 5633 5634 5634 5636 5638 5639 5640 5641 5642 5644 5647 5649 5648 5649 5651 5652 5654 5656 5657 5659 5660 5661 5663 5664 5666 5667 5669 5671 5673 5674 5676 5677 5679 5680 5681 5682 5683 5684 5684 5684 5684
5625 5626 5627 5628 5628 5628 5631 5633 5633 5634 5635 5636 5637 5641 5640 5641 5642 5644 5645 5647 5649 5650 5651 5653 5654 5655 5656 5658 5659 5661 5662 5664 5665 5667 5668 5670 5671 5672 5673 5674 5674 5675 5675 5675
5620 5620 5620 5621 5623 5623 5628 5627 5627 5627 5629 5630 5631 5633 5633 5634 5635 5637 5639 5640 5641 5643 5644 5645 5647 5648 5649 5650 5652 5653 5654 5655 5657 5658 5660 5661 5662 5663 5664 5665 5666 5666 5666 5666
5613 5614 5614 5615 5615 5617 5621 5621 5620 5621 5623 5623 5624 5626 5627 5627 5629 5631 5632 5633 5634 5636 5637 5638 5640 5641 5642 5643 5644 5646 5647 5648 5649 5650 5652 5653 5654 5655 5656 5657 5657 5658 5658 5658
5607 5607 5608 5609 5609 5611 5615 5614 5614 5616 5617 5617 5617 5619 5620 5621 5623 5625 5625 5626 5628 5629 5630 5632 5633 5634 5636 5637 5638 5639 5640 5641 5642 5643 5644 5645 5646 5647 5648 5649 5649 5650 5650 5650
5600 5600 5601 5602 5602 5604 5608 5607 5608 5610 5611 5611 5611 5612 5614 5615 5617 5618 5619 5620 5622 5623 5624 5625 5627 5628 5629 5630 5631 5632 5633 5634 5635 5636 5637 5638 5639 5640 5641 5641 5642 5642 5642 5643
5592 5593 5594 5595 5595 5600 5600 5600 5602 5603 5603 5604 5605 5606 5607 5608 5610 5611 5613 5614 5616 5617 5618 5619 5620 5621 5622 5624 5624 5625 5626 5627 5628 5628 5629 5630 5631 5632 5633 5634 5634 5635 5635 5635
5585 5587 5587 5589 5592 5592 5592 5593 5594 5595 5597 5598 5599 5600 5601 5602 5604 5605 5607 5608 5609 5611 5612 5613 5614 5615 5616 5617 5618 5618 5619 5620 5621 5622 5623 5623 5624 5625 5626 5627 5627 5628 5628 5628
5579 5579 5580 5581 5583 5584 5585 5586 5587 5588 5590 5591 5593 5594 5595 5596 5598 5599 5600 5602 5603 5604 5605 5606 5607 5608 5609 5610 5611 5612 5613 5613 5614 5615 5616 5617 5618 5618 5619 5620 5620 5621 5621 5621
5571 5571 5572 5573 5576 5576 5578 5579 5580 5581 5583 5584 5586 5587 5588 5590 5591 5593 5594 5595 5596 5598 5599 5600 5601 5602 5603 5604 5604 5605 5606 5606 5607 5608 5609 5610 5611 5611 5612 5613 5613 5613 5613 5613
5562 5562 5563 5565 5567 5568 5571 5572 5573 5574 5576 5577 5579 5580 5581 5583 5585 5586 5587 5589 5590 5591 5592 5593 5594 5595 5596 5597 5598 5598 5599 5599 5600 5601 5602 5603 5604 5604 5605 5605 5606 5606 5606 5605